Regional Weather Roundup
Issued by NWS

Home | Current Version | Previous Version | Graphics & Text | Print | Product List | Glossary On
Versions: 1 2 3 4 5 6 7 8 9 10 11 12 13 14 15 16 17 18 19 20 21 22 23 24 25 26 27
000
ASUS45 KBOU 180406
RWRCO

WEATHER ROUNDUP FOR COLORADO
NATIONAL WEATHER SERVICE DENVER/BOULDER CO
1000 PM MDT THU APR 17 2014

NOTE: "FAIR" INDICATES FEW OR NO CLOUDS BELOW 12000 FEET WITH NO
SIGNIFICANT WEATHER AND/OR OBSTRUCTIONS TO VISIBILITY.

COZ001>005-013-030-031-180500-
...NORTHWEST COLORADO...

CITY           SKY/WX    TMP DP  RH WIND       PRES   REMARKS
CRAIG          CLEAR     44  24  45 E3        30.05R
HAYDEN         CLEAR     46  23  39 E3        30.09R
MEEKER         CLEAR     46  26  45 NE5       30.07R
MOUNT WERNER   CLEAR     37  12  35 SW10      30.23R
STEAMBOAT SPGS CLEAR     46  19  34 SE5       30.08R
WALDEN         MOCLDY    37  21  52 E5        30.11R
$$

COZ006>008-011-180500-
...WEST CENTRAL VALLEYS...

CITY           SKY/WX    TMP DP  RH WIND       PRES   REMARKS
GRAND JUNCTION PTCLDY    51  25  36 NE3       30.02R
MONTROSE       CLEAR     49  29  46 SE8       30.09R
EAGLE          CLEAR     45  25  45 E7        30.11R
RIFLE          CLEAR     48  27  44 SE3       30.06R
DELTA          CLEAR     53  28  37 NE6       30.05R
NUCLA            N/A     52  23  32 E7        30.12R
$$

COZ017>023-064>068-180500-
...SOUTHWEST COLORADO...

CITY           SKY/WX    TMP DP  RH WIND       PRES   REMARKS
DURANGO        CLEAR     42  16  34 NE6       30.14R
CORTEZ         CLEAR     44  23  43 NE10      30.11R
PAGOSA SPRINGS CLEAR     45  17  32 CALM      30.21R
TELLURIDE      PTCLDY    43  21  42 E3        30.23R
WOLF CREEK PAS CLEAR     30  16  55 SW25G35   30.33S WCI  16
$$

COZ009-010-012-014-032>034-037-058>063-180500-
...CENTRAL COLORADO...

CITY           SKY/WX    TMP DP  RH WIND       PRES   REMARKS
ASPEN          PTCLDY    41  21  44 S8        30.14R
BUENA VISTA    PTCLDY    44  19  36 NW10      30.14R
COPPER MTN     PTCLDY    34  18  51 SW10G18   30.28S WCI  26
BERTHOUD PASS  FAIR      27  18  69 W21G31    30.27R WCI  13
COTTONWOOD PAS PTCLDY    45  12  26 W13G21    30.20S
GUNNISON       CLEAR     43  21  42 S3        30.19R
KREMMLING      PTCLDY    43  19  39 S5        30.11R
LEADVILLE      PTCLDY    31  17  56 NE8       30.21R WCI  23
MONARCH PASS   CLEAR     32  16  51 W32       30.39S WCI  17
SALIDA         PTCLDY    46  34  63 SE13      30.20S
SUNLIGHT       CLEAR     34  25  69 CALM      30.26R
WILKERSON PASS MOCLDY    32  19  59 SW10G20   30.26S WCI  24
$$

COZ069>075-180500-
...SAN LUIS VALLEY/SANGRE DE CRISTO MOUNTAINS...

CITY           SKY/WX    TMP DP  RH WIND       PRES   REMARKS
ALAMOSA        CLEAR     45  28  51 SW8       30.14R
LA VETA PASS   PTCLDY    37  21  52 SW16G28   30.21F
SAGUACHE       NOT AVBL
$$

COZ035-036-038>040-180500-
...NORTHERN COLORADO FRONT RANGE...

CITY           SKY/WX    TMP DP  RH WIND       PRES   REMARKS
DENVER INTL AP PTCLDY    48  32  53 S18       30.01R
DMNS CITY PARK   N/A     52  32  45 S5        30.00S
AURORA         MOCLDY    50  32  50 S28       30.02R
FRONT RANGE AP NOT AVBL
ERIE MUNI ARPT MOCLDY    49  35  57 CALM      30.00R
BOULDER MUN AP MOCLDY    52  30  43 SW3       30.00R
CENTENNIAL     MOCLDY    49  31  49 S18       30.03R
BROOMFIELD     PTCLDY    54  32  43 CALM      30.00S
FORT COLLINS   PTCLDY    48  27  43 CALM      30.01R
LONGMONT       PTCLDY    49  32  51 NW3       30.01R
$$

COZ041-046-047-076>085-087-088-180500-
...PIKES PEAK/PALMER DIVIDE AND SOUTHERN FOOTHILLS...

CITY           SKY/WX    TMP DP  RH WIND       PRES   REMARKS
COLO. SPRINGS  MOCLDY    43  33  68 SE12      30.12R
A. F. ACADEMY  MOCLDY    43  32  64 S13       30.12R
ELLICOTT       NOT AVBL
FALCON         PTCLDY    37  32  81 SE6       30.14R
FORT CARSON    PTCLDY    44  33  66 SE7       30.11R
LIMON          CLEAR     40  34  79 S15       30.12R
MONUMENT HILL  PTCLDY    39  32  75 S20G26    30.09R
TRINIDAD       CLEAR     45  35  68 W8        30.11R
$$

COZ042>045-048>051-090-091-180500-
...NORTHEAST COLORADO...

CITY           SKY/WX    TMP DP  RH WIND       PRES   REMARKS
GREELEY ARPT   CLEAR     48  32  53 S7        30.00R
AKRON          CLEAR     45  36  70 S21G30    30.05R
BURLINGTON     CLEAR     41  37  86 S20       30.13R
WRAY           CLEAR     46  39  78 S9        30.10S
STERLING       CLEAR     52  39  62 S14       30.02R
HOLYOKE        CLEAR     46  37  71 S17       30.07S
FORT MORGAN    CLEAR     48  33  54 S16       30.03S
$$

COZ086-089-092>099-180500-
...SOUTHEAST COLORADO...

CITY           SKY/WX    TMP DP  RH WIND       PRES   REMARKS
PUEBLO         PTCLDY    49  36  61 E7        30.07R
LA JUNTA       CLEAR     49  36  61 SE10      30.09R
LAMAR          CLEAR     45  35  68 S23G30    30.12R
SPRINGFIELD      N/A     38  32  79 S14       30.18S
$$



USA.gov is the U.S. government's official web portal to all federal, state and local government web resources and services.